Regional Weather Roundup
Issued by NWS State College, PA

Home | Current Version | Previous Version | Text Only | Print | Product List | Glossary On
Versions: 1 2 3 4 5 6 7 8 9 10 11 12 13 14 15 16 17 18 19 20 21 22 23 24 25 26 27 28 29 30 31 32 33 34 35 36 37 38 39 40 41 42 43 44 45 46 47 48 49 50
000
ASUS41 KCTP 250710
RWRCTP

REGIONAL WEATHER ROUNDUP
NATIONAL WEATHER SERVICE STATE COLLEGE PA
300 AM EDT SAT APR 25 2015

Note: "fair" indicates few or no clouds below 12,000 feet with no
significant weather and/or obstructions to visibility.

* = STATION THAT DOES NOT REPORT PRECIPITATION /E.G. RAIN...SNOW...ETC/
    THUNDER OR FOG.

PAZ002>004-007>009-013>016-020>023-029>032-250800-
WESTERN PENNSYLVANIA

CITY           SKY/WX    TMP DP  RH WIND       PRES   REMARKS
ERIE           MOCLDY    31  23  72 S3        29.99S
MEADVILLE      MOCLDY    33  21  61 CALM      29.95F
FRANKLIN*      MOCLDY    30  19  64 CALM      29.96F
NEW CASTLE     FAIR      34  26  72 CALM      29.99F
BEAVER COUNTY  NOT AVBL
BUTLER*        CLOUDY    34  19  55 CALM      29.98F
PITTSBURGH INT CLOUDY    40  20  44 CALM      29.98S
PITTSBURGH     CLOUDY    39  15  37 NE5       29.96F
INDIANA*       CLOUDY    30  21  69 CALM      30.00F
LATROBE        MOCLDY    32  25  74 CALM      30.00S
WASHINGTON CO* CLOUDY    41  21  45 NE8       29.98F
$$

PAZ004>006-010>012-017>019-024>028-033>037-041-042-045-046-049>053-250800-
CENTRAL PENNSYLVANIA

CITY           SKY/WX    TMP DP  RH WIND       PRES   REMARKS
BRADFORD       PTCLDY    25  18  74 CALM      29.91F
DUBOIS         CLEAR     33  15  47 CALM      29.93F
CLEARFIELD     CLEAR     28  16  60 CALM      29.94F
JOHNSTOWN      CLEAR     32  13  45 N3        29.93S
ALTOONA        CLEAR     33  14  45 N7        29.96F
STATE COLLEGE  CLEAR     33  16  48 CALM      29.95F
WILLIAMSPORT   CLEAR     35  22  58 W8        29.95F
SELINSGROVE    CLEAR     30  25  81 NW5       29.97F
FT INDIANTOWN  CLEAR     36  18  48 NW2       29.96S
CAPITAL CITY   CLEAR     41  14  33 NW3       29.97S
HARRISBURG     PTCLDY    35  19  52 CALM      29.96S
YORK           CLEAR     29  20  69 CALM      29.96S
$$

PAZ038>040-043-044-047-048-054-055-060>062-067>071-250800-
EASTERN PENNSYLVANIA

CITY           SKY/WX    TMP DP  RH WIND       PRES   REMARKS
SCRANTON       CLEAR     35  22  58 CALM      29.91S
MOUNT POCONO   CLEAR     30  20  66 NW10      29.84F
ALLENTOWN      CLEAR     33  21  61 SW5       29.94S
QUAKERTOWN*    SUNNY     30  23  74 W3        29.95R
READING        CLEAR     37  20  50 W7        29.96S
LANCASTER      CLEAR     31  22  69 N8        29.96S
COATESVILLE    SUNNY     36  21  55 CALM      29.95F
POTTSTOWN      CLEAR     32  23  69 CALM      29.97S
BLUE BELL      CLEAR     34  27  75 CALM      29.95S
DOYLESTOWN     CLEAR     31  23  72 S3        29.94S
WILLOW GROVE   NOT AVBL
NORTH PHILA    CLEAR     36  21  54 W5        29.97F
PHILADELPHIA   CLEAR     42  21  43 NW5       29.98S
$$



USA.gov is the U.S. government's official web portal to all federal, state and local government web resources and services.